Theta_e
334 333 333 334 334 333 331 332 333 333 331 330 332 333 332 332 332 333 332 332 332 332 331 331 330 329 329 327 325 324 324 324 325 326 326 326 326 327 327 328 327 328 328 325 324 322 321 319 313 307 306 308 308 306 306 306 304 302 301 301 301 301 301
334 333 333 334 334 334 333 333 334 333 331 331 332 332 332 332 333 333 332 332 332 331 330 329 328 327 326 325 323 322 322 323 323 324 325 325 326 327 327 327 327 327 327 326 324 322 321 320 317 313 312 311 310 308 307 306 304 302 302 301 301 302 301
334 334 334 335 335 334 333 334 335 334 332 331 332 332 333 333 333 333 332 332 331 330 330 328 327 326 325 323 322 322 322 323 323 324 324 325 326 327 326 326 327 327 326 325 324 323 322 321 320 318 314 312 311 308 307 307 304 302 302 302 302 302 301
335 334 334 335 335 334 333 334 334 334 333 332 332 333 333 333 333 333 332 332 331 330 329 328 327 326 324 323 323 322 322 322 322 323 324 325 326 325 324 323 323 324 324 324 324 323 321 320 320 318 313 312 310 307 307 307 304 302 302 303 303 302 302
335 334 334 335 334 334 334 333 333 333 333 333 333 333 333 333 333 332 331 331 330 329 328 328 326 325 324 323 323 323 322 321 321 321 322 324 325 323 322 321 318 317 318 318 319 320 318 317 317 316 312 310 309 307 308 308 306 304 304 303 303 302 302
335 333 333 334 334 334 335 335 334 333 332 333 333 333 333 333 332 332 331 330 330 328 327 327 326 324 323 324 323 323 322 320 319 318 318 319 321 322 320 317 313 310 310 311 313 314 312 312 314 314 312 310 308 307 308 309 307 305 304 303 302 302 302
335 333 333 334 334 335 336 336 335 333 332 332 332 333 333 333 332 331 331 330 330 328 327 326 325 324 323 323 323 323 321 319 318 316 315 315 315 316 315 313 309 307 306 306 307 307 307 308 310 311 310 309 308 307 309 309 307 304 303 302 302 302 302
333 333 333 334 335 336 337 336 335 334 332 332 333 333 333 333 332 331 331 330 330 329 327 325 325 324 323 323 323 322 320 318 315 313 312 311 310 310 310 309 307 305 304 304 305 305 305 304 304 305 306 307 307 307 308 308 305 302 302 302 302 302 303
332 332 333 335 336 337 337 337 336 334 333 333 334 333 333 332 332 331 330 330 330 329 327 325 325 325 324 324 322 321 318 314 311 309 308 307 307 307 307 306 305 304 303 303 303 303 302 301 300 301 302 305 306 306 307 307 304 302 303 303 303 303 303
331 331 333 336 337 337 338 337 335 334 334 334 333 333 332 332 331 330 330 330 330 329 327 325 325 325 325 323 322 319 314 310 307 305 304 304 305 305 304 303 302 302 301 301 300 300 300 299 299 299 300 303 305 305 305 306 305 303 304 304 303 302 300
331 332 334 336 337 337 338 337 335 334 334 334 333 332 332 331 330 330 331 331 330 328 327 326 325 325 324 322 319 315 310 305 303 302 301 302 303 302 301 301 300 300 300 300 299 299 299 299 299 299 299 299 302 304 305 305 305 305 304 303 301 300 298
332 334 335 337 337 337 338 337 335 335 334 333 332 332 331 331 330 331 331 331 329 328 326 326 325 324 322 320 316 311 306 303 301 301 300 301 301 300 300 300 300 300 299 299 299 299 299 299 299 299 299 298 301 304 304 304 304 304 302 300 299 298 298
333 335 336 337 337 338 338 337 336 335 335 333 332 331 331 331 331 331 330 329 328 327 326 325 325 323 320 316 312 307 303 301 300 300 300 300 300 300 300 299 299 299 299 299 299 299 299 299 299 298 298 298 299 301 301 300 301 301 299 298 297 297 297
334 335 336 337 337 338 338 337 336 336 334 333 332 332 332 331 330 330 330 328 327 326 325 325 323 320 316 312 307 303 301 300 300 300 300 300 300 300 299 299 299 299 299 299 299 298 298 298 298 298 298 298 298 298 298 298 299 298 297 297 297 297 297
336 335 335 337 338 338 338 337 336 335 334 333 333 333 332 331 330 330 329 328 326 325 324 324 321 316 312 308 304 301 300 300 300 299 299 300 299 299 299 299 299 299 299 298 298 298 298 298 298 298 298 298 298 298 298 298 298 298 297 297 297 297 297
337 336 336 337 338 338 337 336 335 335 334 333 333 333 332 331 329 330 329 327 326 324 324 323 318 312 308 305 301 300 300 299 299 299 299 299 299 299 299 299 298 298 298 298 298 298 298 298 298 298 298 298 298 298 298 298 298 297 297 297 297 297 296
338 337 336 337 337 338 337 335 333 334 334 333 334 333 331 330 329 329 328 326 325 324 324 321 314 308 304 302 300 300 299 299 299 299 299 299 299 299 299 298 298 298 298 298 298 298 298 297 297 297 297 298 298 298 298 298 298 297 297 297 296 296 296
339 338 337 336 337 337 337 334 333 334 334 334 334 333 331 330 329 328 327 325 325 324 323 319 311 305 302 300 299 299 299 299 299 299 299 299 298 298 298 298 298 298 298 298 297 298 297 297 297 297 297 298 298 298 298 297 297 297 297 296 296 296 296
339 339 338 336 336 336 336 334 333 334 335 334 334 332 331 330 329 328 326 325 324 323 321 317 309 302 301 300 299 299 299 299 299 298 299 298 298 298 298 298 298 297 297 297 297 297 297 297 297 297 297 297 297 297 297 297 297 297 297 296 296 296 296
339 340 339 337 335 335 336 335 334 335 335 334 334 332 331 330 328 327 325 325 324 322 320 315 307 301 300 299 299 299 299 298 298 298 298 298 298 298 298 297 297 297 297 297 297 297 297 297 297 297 297 297 297 297 297 297 297 297 297 296 296 296 297
340 340 339 337 335 335 336 335 335 336 334 333 333 332 331 329 327 326 324 324 324 321 318 313 306 301 300 299 299 299 298 298 298 298 298 298 297 297 297 297 297 297 297 297 297 297 297 296 297 297 297 297 297 297 297 297 297 297 296 295 296 296 297
340 340 339 337 335 335 336 336 335 335 334 332 333 332 330 328 326 325 325 324 324 321 316 310 305 301 300 300 299 298 298 298 298 298 298 298 298 298 297 297 297 297 296 296 297 297 296 296 296 296 297 297 297 297 297 297 297 297 296 296 296 297 297
340 340 339 338 336 334 335 336 336 335 334 332 331 330 329 327 326 325 325 325 324 321 315 308 303 301 300 300 299 298 299 298 299 299 298 298 298 298 297 297 297 297 297 296 296 296 296 296 296 296 296 296 296 296 297 297 297 297 296 296 296 297 297
340 340 339 339 337 335 335 336 336 336 334 333 331 330 328 327 326 325 325 325 324 323 317 309 303 301 300 299 299 299 299 299 299 299 299 299 299 298 297 297 297 297 297 296 296 296 296 296 296 296 296 296 296 296 297 297 297 296 296 296 297 297 297
339 340 339 339 337 335 335 336 336 336 335 333 331 330 328 327 326 326 325 325 325 324 319 310 304 302 300 299 299 299 299 300 299 299 300 300 299 299 298 297 297 297 297 296 296 296 296 296 296 296 296 296 296 297 297 297 297 296 296 296 297 297 298
339 339 339 338 337 335 336 336 336 335 334 332 331 330 328 327 326 326 326 325 325 324 320 313 306 302 301 300 300 300 300 300 299 300 302 301 300 300 300 298 297 297 297 296 296 296 295 296 296 296 296 296 296 297 297 297 297 296 296 296 297 297 298
339 339 338 337 337 335 335 336 336 335 334 332 331 330 329 327 327 326 326 325 325 324 321 315 308 304 302 301 301 300 300 299 299 302 303 302 301 301 300 298 297 297 296 296 296 295 295 295 296 296 296 296 296 297 297 297 297 296 296 296 297 297 298
339 338 338 337 336 336 336 336 336 335 334 333 331 331 329 328 327 327 326 325 324 324 322 317 311 306 304 303 302 301 300 299 301 303 303 302 302 301 299 298 297 297 297 296 295 295 295 295 295 296 296 296 296 297 297 297 296 296 296 296 297 298 298
338 338 337 337 337 336 336 336 335 335 334 333 332 331 330 329 328 327 326 325 324 324 322 318 312 308 306 304 303 301 300 301 303 304 303 302 302 301 299 297 297 297 297 297 296 295 295 295 295 295 295 296 296 296 297 297 296 296 296 296 297 298 298
337 338 337 337 336 336 335 335 334 334 333 332 332 331 330 329 328 327 327 326 325 324 323 319 314 310 308 306 304 302 301 302 304 303 302 301 301 300 298 298 298 298 299 299 299 297 297 296 295 295 295 296 296 296 296 297 296 296 296 297 298 298 298
337 337 337 337 336 335 334 334 334 334 333 333 333 331 330 329 328 327 327 327 325 324 323 320 316 313 310 307 305 303 303 304 304 303 302 301 300 299 298 299 300 300 301 302 302 300 299 298 296 295 295 296 296 296 296 296 296 296 296 297 298 298 298
337 337 337 337 336 336 335 334 334 333 333 333 332 331 330 329 328 328 327 326 324 323 322 320 317 314 311 308 307 306 305 305 304 303 301 300 300 299 298 299 300 300 302 304 303 302 301 299 297 295 295 295 296 296 296 296 296 296 296 297 297 297 297
336 337 337 336 335 336 336 334 332 331 331 332 331 331 329 329 329 328 327 326 324 322 320 319 318 316 312 310 308 307 307 306 304 302 301 300 300 299 299 298 299 301 304 304 303 303 302 299 297 296 295 295 295 296 296 296 296 296 297 297 297 297 297
335 336 337 336 335 336 336 334 332 330 331 331 331 330 329 329 329 328 326 326 324 322 320 319 318 316 313 311 309 308 308 307 305 303 302 300 299 299 299 299 300 302 303 304 303 303 302 299 297 295 295 295 295 296 296 296 297 297 297 297 297 297 297
335 335 336 336 336 335 335 333 332 330 330 330 330 330 330 329 329 328 326 325 324 322 320 318 317 315 314 312 310 309 309 308 305 303 302 301 300 299 299 299 301 302 303 303 303 303 302 299 296 295 295 294 295 296 296 297 297 297 297 297 296 297 297
335 335 334 333 333 334 334 333 331 330 330 330 329 329 328 328 328 327 326 325 324 322 320 317 316 315 314 312 310 309 309 308 306 304 303 301 300 299 299 300 301 302 303 303 303 301 300 297 295 294 294 294 295 295 296 297 297 297 297 297 297 297 298
335 335 334 333 333 334 334 333 331 329 328 329 329 328 326 325 326 327 326 325 324 321 319 317 315 314 313 312 310 310 309 308 306 304 303 302 300 299 299 301 302 302 302 302 301 299 298 297 295 294 294 294 295 295 296 298 298 298 298 298 298 298 299
Wind_Speed
36 35 32 30 29 28 27 26 25 24 22 21 20 20 19 18 18 17 17 16 15 14 15 16 19 20 19 19 19 19 19 19 20 21 21 21 21 21 22 22 22 21 20 18 14 11 9 9 9 11 10 8 7 5 4 3 3 4 4 3 3 3 4
36 35 32 30 30 29 28 27 27 25 23 22 21 21 20 19 19 18 18 18 16 15 15 17 18 19 18 18 18 18 18 19 20 20 20 21 20 20 20 21 21 20 20 19 16 13 12 10 9 10 12 11 9 7 6 4 3 3 2 2 2 2 4
36 35 33 32 30 29 29 29 28 26 25 23 22 22 21 21 21 20 20 19 17 16 16 17 18 18 17 17 17 17 18 18 18 19 20 20 20 20 20 20 21 21 20 19 18 17 15 15 13 11 11 12 10 7 7 6 4 3 2 1 2 5 6
37 37 36 34 32 31 30 29 27 26 26 24 23 23 23 23 23 22 20 19 18 17 17 17 17 17 17 16 16 16 17 17 17 19 20 21 21 21 20 20 20 20 20 20 19 19 18 18 16 13 11 11 10 8 9 8 6 5 4 5 6 8 8
37 38 38 36 33 32 31 29 27 27 27 26 25 25 25 25 23 22 20 19 19 18 17 17 17 17 17 17 17 17 17 17 18 18 19 20 20 20 19 18 19 19 20 20 19 18 18 17 15 12 10 11 12 11 10 10 9 7 7 8 8 9 9
38 38 38 36 33 31 30 30 28 28 28 28 27 26 26 25 23 21 20 19 18 17 16 17 18 17 17 17 17 17 18 18 18 18 17 18 18 18 17 17 17 17 17 17 16 16 15 14 14 13 12 13 13 12 11 12 13 11 10 10 9 8 9
39 39 38 35 33 31 30 30 28 27 29 28 27 26 26 25 23 21 19 18 18 17 16 17 18 18 18 17 17 18 18 19 18 17 16 16 16 16 16 16 15 14 14 14 14 14 14 14 14 14 13 14 14 13 13 14 14 13 11 10 9 9 9
39 39 37 34 32 31 29 29 28 27 28 27 26 27 27 25 23 21 20 19 17 17 16 17 18 19 18 18 18 18 19 18 18 16 16 15 15 15 15 14 13 12 13 13 14 14 14 13 13 12 13 14 14 14 15 16 15 13 12 10 9 9 11
40 39 37 33 32 31 30 30 28 26 26 27 26 27 27 26 23 21 20 19 18 17 16 17 18 18 18 18 18 18 18 18 16 15 15 15 15 14 13 12 11 11 12 12 12 12 11 11 11 11 11 13 13 14 15 16 15 13 11 9 9 11 13
41 40 37 33 31 31 31 30 28 26 26 27 26 27 27 26 24 22 21 20 18 17 17 18 18 18 17 17 18 18 17 16 15 14 14 14 14 13 11 10 10 11 11 10 10 10 9 9 9 9 10 12 13 14 15 16 16 14 12 10 11 12 12
42 39 36 33 31 30 32 32 28 26 26 26 26 27 27 26 24 23 22 20 19 18 18 19 19 18 18 17 18 17 16 15 14 14 13 13 12 10 10 10 10 10 10 9 9 8 8 8 7 7 8 9 12 13 14 15 15 14 13 12 12 11 11
41 38 35 33 31 31 33 33 29 26 27 26 26 27 26 26 24 23 22 21 19 18 18 19 19 19 18 17 17 17 15 14 13 13 12 11 10 10 10 10 10 10 9 9 9 8 8 7 6 6 6 6 9 11 12 13 14 13 12 11 10 10 11
40 37 35 33 32 33 33 32 29 27 27 27 26 26 25 24 24 23 22 20 19 19 19 19 19 18 17 17 17 16 15 14 13 12 11 11 10 10 10 11 10 10 9 9 9 8 7 6 5 5 4 4 6 9 9 10 11 11 9 8 7 9 10
39 37 35 33 32 33 33 32 30 28 28 27 26 25 25 24 24 23 20 18 18 18 19 19 19 18 17 17 16 16 15 13 13 12 11 11 11 11 11 11 10 9 9 9 9 8 7 6 5 5 5 6 6 7 8 8 8 8 5 5 6 9 10
37 36 35 34 34 34 34 32 31 30 29 28 26 25 25 24 24 22 19 18 18 19 19 19 18 17 17 17 17 16 15 13 13 12 12 12 12 12 12 11 10 9 9 9 9 8 7 5 5 5 6 7 7 7 7 7 6 5 3 4 6 9 10
36 35 34 35 35 35 34 32 31 31 30 28 26 26 25 25 24 21 19 19 19 20 19 18 17 16 17 17 16 15 14 13 12 12 12 12 12 12 12 11 10 10 10 10 9 8 7 6 6 6 7 8 7 6 5 4 3 2 2 4 6 8 9
36 35 34 35 36 35 34 32 31 31 30 28 27 26 26 25 24 22 20 20 20 20 18 17 16 17 17 16 15 15 14 13 12 12 12 12 12 12 12 11 11 11 10 10 9 8 7 7 7 8 8 7 6 5 3 2 2 3 4 5 7 7 7
37 37 35 34 35 35 33 32 32 32 31 28 27 27 26 25 24 22 21 20 19 19 17 16 17 18 17 16 15 14 14 13 13 12 12 13 12 12 12 12 12 12 11 10 9 8 8 8 9 8 7 6 5 4 2 3 4 5 5 6 6 6 4
39 39 36 33 32 34 34 33 33 34 32 28 27 28 27 25 24 22 20 19 18 16 15 16 18 19 17 16 15 15 15 14 13 13 14 14 13 13 13 13 13 12 11 10 9 8 8 10 10 9 7 6 4 3 2 3 5 6 6 6 5 5 4
41 40 37 32 30 33 34 33 35 35 31 28 28 28 27 25 23 21 19 17 15 15 15 16 19 19 18 16 16 16 16 15 14 14 15 15 14 14 14 13 13 12 10 9 9 8 10 10 10 8 7 5 4 3 3 4 5 6 6 6 5 4 4
41 40 38 33 30 32 34 34 36 34 30 29 29 27 26 24 22 21 18 16 15 15 15 17 20 20 18 17 17 16 16 15 15 15 16 16 15 15 15 14 13 11 10 10 9 9 10 10 9 8 7 5 4 3 3 4 5 6 6 5 3 3 4
41 40 39 34 30 32 35 37 37 33 29 29 29 27 25 24 22 20 17 15 15 15 15 18 20 20 18 17 17 17 16 16 16 16 16 16 16 16 15 14 13 12 11 11 10 10 11 10 9 8 7 5 4 4 4 4 5 6 6 4 2 2 4
42 42 41 36 33 33 35 38 38 33 30 30 29 27 26 25 23 20 17 16 15 15 16 18 20 19 17 17 17 17 16 16 16 16 15 15 16 16 15 14 13 13 13 11 11 11 11 10 9 8 7 6 5 4 4 5 5 5 5 4 2 2 4
42 42 41 39 36 34 35 39 39 33 31 31 29 27 27 27 24 20 18 18 16 15 16 18 20 19 18 17 17 16 16 17 16 16 15 15 16 16 15 15 14 14 13 12 12 12 11 10 10 9 8 7 5 5 4 5 6 5 5 4 2 3 5
43 43 42 41 38 33 35 42 40 34 31 31 30 29 29 28 24 20 19 19 17 15 15 17 19 19 18 18 17 16 16 16 16 16 15 15 16 16 15 15 15 14 13 13 13 12 11 11 11 10 9 7 5 5 4 5 6 6 5 3 2 3 5
45 44 43 41 36 31 35 42 40 34 32 32 32 31 30 28 24 21 20 20 18 16 15 16 19 19 18 18 17 17 16 16 16 15 14 15 16 16 14 13 14 14 14 14 14 13 12 12 11 11 9 7 6 6 5 5 6 6 5 3 1 3 5
45 44 41 39 35 33 36 40 40 37 33 32 34 33 30 28 26 23 21 19 19 18 16 16 18 18 17 17 17 17 17 17 17 16 15 14 15 15 14 13 13 14 14 14 13 13 13 12 12 11 9 8 7 6 4 5 6 6 5 3 1 2 4
44 43 40 37 36 37 39 41 42 40 35 33 35 34 30 29 28 25 22 19 19 19 17 16 17 17 17 17 17 18 18 17 16 16 15 15 16 15 14 13 13 14 14 14 13 13 13 12 12 11 9 9 8 5 4 5 6 6 5 3 1 1 4
44 43 40 39 39 39 41 45 47 43 35 33 36 36 32 31 29 26 22 21 20 20 18 17 16 16 16 16 17 19 19 17 16 16 16 16 17 16 15 14 14 14 14 13 12 12 12 12 12 11 10 10 8 5 4 5 5 5 5 4 2 1 3
44 44 42 41 40 39 43 47 47 41 36 36 39 38 34 33 31 27 24 21 20 20 19 18 17 16 15 16 18 20 19 17 16 16 17 17 18 17 15 15 15 15 14 13 11 10 10 11 11 11 11 10 8 6 5 5 5 5 5 4 3 1 2
43 44 42 41 40 39 40 43 43 41 39 39 40 39 36 34 31 29 26 22 21 21 20 18 17 17 16 18 19 19 18 17 17 17 18 18 18 17 16 15 16 15 14 12 10 9 9 10 11 12 11 10 8 7 6 5 5 5 5 5 3 1 2
43 45 42 39 40 41 42 43 45 46 42 39 39 39 37 34 31 31 29 25 22 22 21 18 17 17 18 18 19 19 18 17 17 19 20 19 19 18 17 17 17 15 13 12 11 10 8 9 11 12 11 10 8 7 7 6 6 5 5 5 5 3 2
44 47 42 37 39 45 48 48 48 46 41 38 38 38 35 33 32 33 31 26 23 23 22 20 18 18 18 19 20 20 20 19 18 19 20 20 19 19 19 18 17 15 14 14 12 11 9 9 10 11 11 10 9 8 7 7 6 6 6 7 7 5 3
40 43 44 42 43 47 49 49 49 45 39 38 39 37 34 34 35 34 31 25 23 24 23 21 19 18 19 20 21 22 22 20 18 18 20 20 20 20 20 19 17 16 15 14 13 11 10 10 12 12 11 10 10 9 8 7 7 6 7 8 8 6 4
36 38 41 43 43 44 45 47 48 43 37 38 40 37 35 36 35 32 29 26 25 24 23 21 20 19 20 21 22 23 22 20 18 18 20 21 21 21 20 18 16 15 15 14 12 12 12 12 13 13 11 11 11 9 8 9 8 8 7 8 8 7 4
38 38 39 38 36 39 43 45 46 43 38 38 40 39 38 38 34 30 29 28 26 26 24 22 21 20 20 21 23 23 23 21 19 19 21 21 21 21 19 18 17 16 15 14 14 13 12 13 14 14 13 13 12 10 9 10 9 8 7 7 7 6 4
38 39 42 43 41 42 44 45 45 43 39 37 38 38 39 38 33 30 30 29 27 26 25 23 23 22 22 22 24 24 23 22 21 20 21 21 21 20 19 18 17 17 16 16 14 13 13 14 13 12 13 13 12 10 10 10 10 10 9 7 6 6 4
Wind_Direction
226 225 224 225 226 228 230 230 231 234 235 234 237 241 241 240 239 240 243 244 245 248 253 256 258 259 260 260 260 259 259 259 258 256 253 251 249 247 246 246 248 250 253 257 260 260 259 257 243 229 225 219 207 192 176 144 113 106 102 88 50 18 347
228 228 227 227 225 226 229 231 233 234 234 234 236 239 239 239 239 243 247 251 254 257 261 260 256 254 255 256 257 256 257 259 259 257 253 253 252 251 250 251 252 253 253 255 255 254 252 253 249 238 234 229 218 202 191 175 143 132 115 92 63 330 304
226 226 226 226 225 226 228 231 234 235 234 234 236 237 236 237 240 244 249 253 257 261 264 260 254 251 252 254 254 253 254 255 256 255 254 254 253 252 253 254 255 256 256 254 253 254 252 253 253 249 243 232 218 201 193 186 164 155 152 163 232 259 279
226 226 224 222 224 226 227 229 233 235 235 235 236 237 236 237 239 245 250 255 260 264 264 258 253 252 252 252 252 252 252 253 252 252 252 252 253 254 255 257 259 261 262 261 259 259 259 259 256 251 240 223 205 196 195 187 175 178 199 224 245 260 277
228 228 225 223 223 225 227 228 229 232 233 234 235 236 237 238 241 246 252 258 264 268 265 257 251 251 252 252 253 253 253 253 252 252 251 251 252 254 257 260 263 265 265 265 263 261 261 260 256 247 232 211 197 197 198 189 186 200 225 239 252 264 278
230 229 227 225 225 226 227 229 231 233 232 233 235 237 239 241 243 248 254 260 267 269 265 256 250 249 252 253 256 258 257 254 252 251 251 251 251 253 256 260 263 265 264 264 263 260 259 256 250 243 229 213 203 200 196 190 195 207 223 237 250 261 275
229 228 227 227 227 227 229 232 237 238 236 236 239 240 242 244 247 251 256 261 267 267 262 255 251 249 250 252 256 258 258 255 251 249 248 248 251 253 256 259 262 263 261 260 259 258 258 255 251 247 233 214 202 198 194 191 197 207 214 225 241 258 274
229 227 226 227 228 228 230 235 240 243 241 240 242 244 245 247 250 254 258 262 266 266 260 256 254 251 250 252 255 258 257 253 249 247 247 248 252 255 258 261 260 257 255 255 255 254 254 250 246 245 237 220 202 191 191 194 197 204 212 223 242 263 279
227 226 225 226 227 229 233 236 240 243 241 240 242 245 246 248 251 254 258 261 265 265 260 257 256 255 254 254 255 256 253 248 245 245 247 249 253 255 257 259 255 250 249 249 248 246 243 239 233 232 235 231 216 197 190 194 198 206 217 232 252 269 280
226 225 224 225 227 232 236 236 238 240 238 239 243 245 245 247 250 253 256 259 264 264 259 258 259 260 261 256 252 250 245 242 241 242 245 248 250 253 252 248 244 242 241 239 238 236 233 231 229 227 228 230 228 217 205 199 200 211 226 241 257 269 278
225 224 225 226 228 233 235 233 235 236 236 239 244 245 245 246 248 251 253 257 262 262 259 258 260 263 261 254 246 240 234 233 236 238 241 242 241 242 239 235 234 234 234 234 235 235 235 231 229 230 229 227 225 223 223 216 206 212 229 245 259 271 281
224 223 224 225 228 233 234 234 235 235 234 239 244 244 244 244 246 249 252 257 261 261 260 259 259 261 258 248 239 231 228 228 230 232 234 234 230 228 230 231 233 233 234 236 236 235 234 231 228 227 226 225 216 211 220 224 213 210 224 240 259 275 289
223 223 224 226 228 233 236 236 238 237 236 240 242 242 242 242 244 248 252 258 260 260 260 259 259 259 251 239 231 225 225 226 226 226 227 227 225 224 227 229 231 234 237 238 237 235 233 230 226 219 204 196 196 192 196 206 207 208 219 238 264 284 296
223 222 224 227 229 233 236 238 239 239 238 240 240 240 241 240 243 248 253 258 260 259 258 258 258 254 240 228 223 221 222 223 223 223 221 222 224 225 226 228 230 234 237 239 236 233 232 228 217 206 190 178 178 178 176 185 198 206 227 261 285 297 305
223 223 224 227 229 232 236 238 238 237 236 238 239 240 240 240 243 248 254 258 259 256 255 254 252 243 230 222 220 220 220 219 220 220 219 221 225 227 226 226 229 232 234 235 233 231 228 220 207 195 187 182 182 182 181 190 202 207 235 277 295 305 314
222 222 224 228 231 232 235 237 236 235 234 236 239 240 240 240 243 249 253 256 256 254 253 252 245 233 223 219 220 221 220 218 218 220 222 224 226 228 228 226 227 230 233 231 230 229 222 209 198 189 187 188 190 193 194 203 228 252 277 296 307 315 321
221 221 223 227 231 232 233 235 234 232 233 236 239 239 239 239 241 246 249 251 253 252 252 251 240 227 220 218 220 222 221 220 219 220 223 226 228 230 229 229 228 229 231 232 232 230 221 207 192 184 188 194 196 203 216 243 291 311 318 319 321 325 332
221 221 223 228 231 231 232 232 232 232 232 234 238 238 237 237 238 241 245 248 251 252 254 250 236 225 219 218 219 221 221 221 221 220 222 224 227 229 230 231 231 231 233 235 236 231 214 200 190 188 194 198 201 217 253 294 313 323 327 327 326 332 348
222 221 225 229 230 230 230 229 231 231 230 233 236 236 235 235 237 239 242 247 251 254 255 246 232 224 221 218 217 217 217 219 220 221 222 222 223 226 229 231 232 234 236 236 234 223 204 196 195 198 200 201 210 235 274 304 320 324 323 325 328 335 355
222 221 225 228 230 230 227 227 230 229 227 231 235 234 232 233 235 237 241 247 253 257 253 239 227 222 220 218 217 216 215 216 216 219 221 221 222 225 228 230 231 232 232 230 228 217 203 200 202 203 203 207 221 250 284 306 320 319 316 322 329 338 360
221 222 224 225 229 229 226 227 229 226 225 231 234 233 231 230 232 234 239 246 251 254 248 233 224 221 219 217 217 217 216 215 215 218 220 219 221 226 227 227 227 226 223 223 223 214 204 204 207 207 208 214 227 254 283 301 314 314 315 325 335 350 15
222 223 221 222 228 228 226 227 225 222 227 231 232 232 230 228 229 232 237 243 248 249 242 231 223 221 220 217 216 216 215 214 216 219 220 221 223 226 227 225 222 219 220 221 218 209 203 205 208 208 211 219 232 255 281 299 313 317 319 329 350 14 25
222 221 219 222 227 226 226 226 221 221 228 228 229 230 227 224 225 229 234 239 245 247 240 231 225 222 221 219 218 217 215 215 218 219 221 225 229 229 225 222 220 219 219 219 213 207 206 208 207 207 211 221 235 257 279 297 314 325 324 328 357 29 25
220 220 219 223 223 221 224 224 220 223 226 224 227 230 224 221 222 224 232 238 243 247 242 232 226 221 219 219 219 218 216 217 219 218 222 230 233 232 227 222 220 220 219 217 212 210 210 209 208 208 213 222 239 259 277 298 319 332 330 329 358 29 27
219 219 221 222 220 220 223 221 218 222 223 222 228 229 223 220 219 222 232 236 240 244 241 233 227 221 218 217 217 216 217 221 220 219 227 233 233 233 231 226 222 220 218 215 213 213 212 210 212 213 216 225 241 257 275 300 322 334 333 329 351 23 27
217 218 218 218 218 221 224 220 218 221 222 224 229 230 223 218 218 223 232 237 241 243 239 231 226 221 217 216 214 213 216 219 220 227 239 238 232 233 235 231 226 220 215 214 214 213 211 212 216 218 220 229 242 255 277 306 324 332 330 316 328 14 22
215 215 216 217 218 221 224 223 223 222 222 225 229 227 221 216 217 222 229 237 243 242 238 231 224 220 216 214 212 211 211 212 220 237 245 236 233 238 238 232 228 223 218 216 215 213 212 214 218 221 222 231 244 256 279 308 322 327 322 299 286 17 22
214 217 218 219 220 221 223 225 225 221 220 227 230 226 219 215 216 220 226 235 241 241 239 232 223 219 215 212 212 211 208 212 226 239 237 231 236 240 235 229 225 220 219 219 217 215 214 215 219 221 223 232 243 256 276 301 315 317 309 283 264 16 22
217 218 219 218 219 221 224 225 221 217 218 226 229 226 220 216 215 217 223 232 236 237 237 230 222 219 215 213 213 210 209 219 232 234 228 228 234 234 229 225 218 213 216 218 217 217 217 218 220 221 223 231 239 247 263 288 304 305 293 270 256 349 9
215 214 215 217 219 223 226 223 218 215 219 224 225 223 219 215 214 216 222 231 233 233 234 229 223 218 214 214 213 210 215 227 233 229 226 228 232 231 227 219 209 209 216 217 215 217 218 221 223 221 223 230 237 244 259 278 291 292 281 257 244 307 343
215 214 214 218 222 226 227 224 222 223 225 225 225 223 219 213 213 217 222 229 231 232 233 230 224 220 217 216 214 213 222 234 232 226 225 227 229 230 226 216 209 212 219 219 215 215 216 219 223 223 224 227 236 248 259 269 277 279 266 246 236 264 326
216 214 216 220 225 228 227 226 225 224 222 222 224 224 219 213 213 219 222 225 229 232 232 229 227 225 222 219 219 219 227 236 233 227 226 226 227 230 228 220 215 215 220 223 223 223 223 223 225 226 224 224 233 248 256 263 271 273 258 239 226 216 232
213 212 215 222 229 230 228 224 219 217 217 220 224 225 222 216 217 221 220 221 227 230 230 230 229 229 227 224 224 225 229 237 237 231 230 228 227 230 231 226 220 218 221 226 230 235 239 235 229 225 221 223 232 243 251 256 262 265 254 238 227 216 212
216 215 217 222 228 230 228 224 220 217 217 221 222 222 222 220 221 222 220 221 228 229 229 231 229 228 229 228 228 229 233 239 242 238 236 233 230 232 234 230 225 223 226 230 234 244 251 243 229 221 219 225 232 238 246 249 248 251 249 239 233 224 211
221 221 221 222 225 225 224 225 224 221 219 220 220 219 222 223 222 221 220 224 230 231 231 231 228 228 231 231 232 235 239 244 246 243 240 235 233 236 237 232 230 231 233 238 245 254 257 244 229 223 222 228 232 234 240 242 239 241 244 240 235 229 221
219 219 218 219 224 227 226 225 225 222 218 219 220 220 223 224 220 217 219 225 229 232 232 230 228 230 232 233 235 239 244 247 247 246 245 239 237 239 237 233 234 237 240 248 253 253 248 236 227 223 223 229 234 234 235 237 234 235 240 238 232 228 236
219 218 216 215 217 224 227 225 223 219 216 218 223 224 224 222 217 215 220 224 227 230 230 229 230 231 232 234 238 241 244 247 247 247 247 243 241 242 238 234 238 242 246 253 251 238 229 225 220 216 218 227 234 233 231 232 229 229 233 234 234 241 262